Location: Blankensee
(53.5126°N, 14.3055°E)
Time: 18:57:20
(UTC+00:00)

SL-16 R/B - Pass Details

Date: 08 August 2020
Orbit: 840 x 849 km, 71.0° (Epoch: 20 September)

Event Time Altitude Azimuth Distance (km) Brightness Sun altitude
Rises 23:59:52 0° 328° (NNW) 3,426 6.0 -19.6°
Reaches altitude 10° 00:02:24 10° 333° (NNW) 2,487 5.3 -19.5°
Maximum altitude 00:08:00 53° 50° (NE) 1,035 2.9 -19.3°
Drops below altitude 10° 00:13:33 10° 128° (SE) 2,472 4.4 -19.0°
Enters shadow 00:15:33 - 132° (SE) 3,211 5.0 -18.9°
